EW7186 Weather Reports


time (UTC)temp
C
wind
direction
speed
KPH
gust
KPH
rain 1hr
cm
rain 24hr
cm
rain mn
cm
humidity
%
barometer
mb
20260906091602 21 0 0.0 0.0 0.00 1.78 0.00 75 1010.7
20260906084603 21 0 0.0 0.0 0.00 1.78 0.00 75 1010.7
20260906083104 21 0 0.0 0.0 0.00 1.78 0.00 75 1010.6
20260906081602 21 0 0.0 0.0 0.00 1.78 0.00 75 1010.6
20260906074603 21 0 0.0 0.0 0.00 1.78 0.00 75 1010.5
20260906073059 21 0 0.0 0.0 0.00 1.78 0.00 75 1010.2
20260906071557 21 0 0.0 0.0 0.00 1.78 0.00 75 1010.3
20260906064557 21 0 0.0 0.0 0.00 1.78 0.00 75 1010.7
20260906063103 21 0 0.0 0.0 0.00 1.78 0.00 75 1010.6
20260906061626 21 0 0.0 0.0 0.00 1.78 0.00 75 1010.9
20260906060114 21 0 0.0 0.0 0.00 1.78 0.00 75 1011.0
20260906054557 21 0 0.0 0.0 0.00 1.78 0.00 75 1011.5
20260906053059 21 0 0.0 0.0 0.00 1.78 0.00 75 1011.5
20260906051605 21 0 0.0 0.0 0.00 1.78 0.00 75 1011.5
20260906050105 21 0 0.0 0.0 0.00 1.78 0.00 75 1011.7
20260906044559 21 0 0.0 0.0 0.00 1.78 0.00 75 1011.7
20260906043102 21 0 0.0 0.0 0.00 1.78 0.00 75 1011.8
20260906041602 21 0 0.0 0.0 0.00 1.78 0.00 75 1011.9
20260906040106 21 0 0.0 0.0 0.00 1.78 0.00 75 1012.1
20260906034606 21 0 0.0 0.0 0.00 1.78 1.78 75 1012.0
20260906033100 21 0 0.0 1.6 0.00 1.78 1.78 75 1012.1
20260906031605 22 0 0.0 1.6 0.00 1.78 1.78 75 1012.2
20260906030111 22 0 0.0 0.0 0.00 1.78 1.78 75 1012.2
20260906024601 22 0 0.0 0.0 0.00 1.78 1.78 75 1012.1
20260906023109 22 0 0.0 0.0 0.00 1.78 1.78 75 1012.1
20260906021606 22 272 0.0 1.6 0.00 1.78 1.78 75 1011.8
20260906014605 22 0 0.0 0.0 0.00 1.78 1.78 75 1011.7
20260906013102 22 0 0.0 1.6 0.00 1.78 1.78 76 1011.7
20260906011607 22 0 0.0 1.6 0.00 1.78 1.78 75 1011.1
20260906004557 22 0 0.0 0.0 0.00 1.78 1.78 76 1011.0
20260906003105 22 0 0.0 0.0 0.00 1.78 1.78 76 1011.1
20260906001603 22 0 0.0 0.0 0.00 1.78 1.78 76 1011.0
20260906000104 22 0 0.0 0.0 0.00 1.78 1.78 76 1011.1
20260905234557 22 0 0.0 1.6 0.00 1.78 1.78 76 1011.2
20260905233102 22 0 0.0 0.0 0.00 1.78 1.78 77 1011.7
20260905231554 21 0 0.0 1.6 0.00 1.78 1.78 77 1012.1
20260905230103 21 0 0.0 1.6 0.00 1.78 1.78 78 1011.8
20260905224559 22 0 0.0 0.0 0.25 1.78 1.78 78 1010.9
20260905223102 22 0 0.0 1.6 0.74 1.78 1.78 79 1009.9
20260905221605 22 214 0.0 4.8 1.09 1.78 1.78 79 1010.2
20260905220059 21 243 0.0 6.4 1.78 1.78 1.78 83 1011.2
20260905214605 21 230 0.0 8.0 1.47 1.47 1.47 90 1012.6
20260905213113 25 341 14.5 29.0 1.04 1.04 1.04 88 1013.1
20260905211612 27 15 19.3 46.7 0.69 0.69 0.69 81 1011.2
20260905210112 33 45 11.3 19.3 0.00 0.00 0.00 59 1010.0
20260905204559 34 76 4.8 6.4 0.00 0.00 0.00 57 1009.5
20260905203106 34 49 4.8 6.4 0.00 0.00 0.00 65 1009.1
20260905201604 34 47 4.8 6.4 0.00 0.00 0.00 63 1009.5
20260905200104 35 0 0.0 6.4 0.00 0.00 0.00 53 1009.9
20260905194559 34 53 4.8 8.0 0.00 0.00 0.00 52 1009.9
20260905193103 34 0 0.0 4.8 0.00 0.00 0.00 55 1010.0
20260905191603 33 0 0.0 6.4 0.00 0.00 0.00 56 1010.2
20260905184605 33 62 4.8 8.0 0.00 0.00 0.00 61 1010.6
20260905183118 33 64 4.8 9.7 0.00 0.00 0.00 63 1011.1
20260905181608 32 63 6.4 9.7 0.00 0.00 0.00 62 1011.2
20260905180106 32 65 8.0 11.3 0.00 0.00 0.00 68 1011.4
20260905174557 32 63 6.4 9.7 0.00 0.00 0.00 69 1011.6
20260905173110 32 64 6.4 8.0 0.00 0.00 0.00 67 1011.9
20260905171605 32 63 4.8 9.7 0.00 0.00 0.00 68 1012.0
20260905164558 32 61 4.8 8.0 0.00 0.00 0.00 65 1012.7
20260905163108 32 63 4.8 9.7 0.00 0.00 0.00 67 1012.9
20260905161604 31 0 3.2 8.0 0.00 0.00 0.00 63 1013.0
20260905160100 31 334 3.2 6.4 0.00 0.00 0.00 66 1013.3
20260905154607 31 0 0.0 4.8 0.00 0.00 0.00 66 1013.2
20260905153111 31 259 3.2 9.7 0.00 0.00 0.00 68 1013.4
20260905151608 30 333 3.2 9.7 0.00 0.00 0.00 70 1013.5
20260905150105 30 330 4.8 9.7 0.00 0.00 0.00 72 1013.6
20260905144602 30 337 0.0 6.4 0.00 0.00 0.00 74 1013.8
20260905143105 29 0 0.0 3.2 0.00 0.00 0.00 75 1014.0
20260905141623 29 287 1.6 6.4 0.00 0.00 0.00 76 1013.9
20260905140106 28 239 1.6 4.8 0.00 0.00 0.00 80 1013.9
20260905134604 28 0 0.0 3.2 0.00 0.00 0.00 82 1013.8
20260905133102 27 0 0.0 4.8 0.00 0.00 0.00 83 1014.1
20260905131615 27 0 0.0 3.2 0.00 0.00 0.00 85 1014.1
20260905130106 26 248 0.0 6.4 0.00 0.00 0.00 87 1014.1
20260905124604 25 0 0.0 3.2 0.00 0.00 0.00 89 1014.2
20260905123106 25 226 0.0 6.4 0.00 0.00 0.00 91 1014.0
20260905121603 24 233 1.6 4.8 0.00 0.00 0.00 91 1013.8
20260905120105 23 216 1.6 3.2 0.00 0.00 0.00 91 1013.7
20260905114558 23 0 0.0 0.0 0.00 0.00 0.00 91 1013.7
20260905113103 23 0 0.0 0.0 0.00 0.00 0.00 90 1013.6
20260905111604 23 0 0.0 0.0 0.00 0.00 0.00 90 1013.5
20260905110109 23 0 0.0 0.0 0.00 0.00 0.00 90 1013.3
20260905104610 23 0 1.6 3.2 0.00 0.00 0.00 90 1013.2
20260905103101 23 0 0.0 3.2 0.00 0.00 0.00 90 1013.1
20260905101604 23 0 0.0 1.6 0.00 0.00 0.00 90 1013.1
20260905100121 23 0 0.0 0.0 0.00 0.00 0.00 90 1013.0
20260905094602 23 0 0.0 1.6 0.00 0.00 0.00 91 1012.9
20260905093103 23 217 0.0 1.6 0.00 0.00 0.00 91 1013.1